Theta_e
301 301 300 292 291 294 286 286 284 289 294 303 308 309 315 318 320 321 323 327 330 332 333 333 335 338 339 340 341 343 345 346
301 301 301 296 298 290 285 283 281 286 289 294 303 306 310 313 318 321 322 323 328 331 332 333 334 338 340 341 341 343 346 346
297 296 297 293 291 289 292 286 284 282 288 297 303 306 308 311 317 320 322 323 326 329 332 333 334 336 338 340 341 342 346 347
292 297 303 302 297 290 290 285 286 286 289 300 303 307 310 311 315 319 323 324 326 328 330 331 331 333 336 339 341 342 344 347
287 294 295 294 296 292 290 287 292 286 290 301 301 303 305 309 312 317 321 324 326 326 327 329 330 332 335 337 340 343 344 345
285 288 292 290 296 296 295 290 292 293 292 297 301 300 304 308 313 314 318 322 325 326 326 328 330 332 334 337 340 342 343 344
290 293 295 294 295 296 295 296 292 295 295 297 300 303 306 306 313 318 319 321 322 325 325 326 328 332 335 337 341 343 343 343
288 294 295 293 296 297 297 297 297 296 295 300 303 302 304 307 310 315 318 321 322 325 326 327 327 331 335 337 340 343 343 342
284 291 291 289 295 297 297 298 298 295 298 301 300 301 303 306 306 311 317 320 321 323 325 328 327 331 334 336 341 342 343 344
284 287 283 292 300 301 299 300 300 299 302 304 304 306 306 306 308 306 311 319 321 323 324 327 330 330 334 337 339 343 343 343
284 283 290 294 303 304 300 297 302 300 302 303 306 305 303 306 306 308 310 316 321 324 325 326 327 332 333 335 338 341 343 344
284 283 282 294 306 312 310 295 306 307 304 304 302 297 304 307 309 310 312 315 317 320 323 322 324 326 331 334 336 338 344 345
284 285 289 301 309 311 295 297 309 311 310 309 301 306 309 309 309 312 313 314 316 319 324 326 327 331 332 334 336 339 343 347
283 284 284 307 308 302 304 310 312 314 314 312 314 307 308 311 312 313 313 315 316 319 321 325 331 333 333 334 338 342 343 345
288 288 299 308 307 311 311 312 313 314 316 322 322 309 311 317 322 325 332 333 320 313 327 334 331 334 330 333 337 338 341 342
294 299 305 309 311 312 314 314 315 317 324 327 317 323 329 332 335 339 340 340 342 341 340 340 344 341 337 339 339 336 336 337
294 296 305 311 311 312 315 317 317 319 324 331 332 333 335 334 336 336 338 339 340 340 341 340 343 345 348 347 342 339 337 336
288 298 299 306 311 315 314 314 317 318 325 327 330 330 333 332 333 333 333 337 337 338 339 340 341 342 345 348 347 346 342 340
296 307 308 310 313 315 314 315 317 319 321 325 327 330 330 329 329 326 330 332 332 333 333 333 335 338 340 340 340 336 332 330
Wind_Speed
10 6 17 6 10 10 6 2 3 6 7 7 5 12 13 20 17 20 21 22 25 25 23 22 20 23 22 20 20 19 20 17
18 6 12 12 12 5 1 7 6 5 4 7 10 13 14 9 18 19 17 21 22 22 22 21 22 21 21 21 21 20 19 17
9 12 17 4 5 3 7 6 7 0 8 9 10 15 19 19 18 17 17 19 21 21 21 22 19 18 21 21 20 20 19 18
7 3 14 20 14 8 9 8 6 5 9 4 10 11 11 10 13 10 13 17 20 21 20 18 20 18 20 19 19 20 19 19
5 8 3 6 10 8 4 2 19 8 6 8 6 7 9 11 10 9 9 9 14 14 16 19 19 19 19 19 22 20 19 18
3 3 3 7 8 9 15 12 12 20 3 4 8 10 10 10 10 9 8 8 12 13 16 18 18 19 19 20 19 18 19 19
4 11 8 12 16 14 20 21 14 9 15 10 9 11 15 13 7 6 9 8 10 13 14 15 15 16 17 17 17 18 18 19
4 10 14 13 14 17 14 13 17 12 10 9 13 9 7 10 8 9 10 10 9 9 10 11 15 17 18 17 19 20 20 23
5 6 10 13 13 14 11 10 12 18 11 7 10 10 13 13 10 11 12 12 11 13 12 13 14 16 18 19 17 19 20 19
5 4 10 7 3 10 21 19 14 9 13 17 16 14 16 17 18 14 11 11 11 11 12 12 14 14 14 13 16 18 19 18
4 6 11 19 4 5 5 13 13 12 10 14 19 10 9 10 11 15 13 14 16 15 14 13 13 14 12 12 15 15 16 16
4 7 8 3 3 5 5 6 7 10 11 14 7 7 10 8 9 13 11 7 10 10 6 7 10 8 12 15 15 17 18 20
13 6 7 4 6 3 8 6 13 7 11 13 11 12 15 5 8 9 10 12 8 9 11 15 9 12 14 14 16 21 18 16
7 7 16 1 5 4 3 6 13 16 15 15 16 17 9 6 5 6 8 5 6 5 3 4 2 7 10 14 18 6 8 13
11 7 6 5 5 5 5 7 10 16 20 16 18 15 7 4 6 5 5 5 5 7 7 6 5 6 4 2 4 6 5 5
7 8 7 3 5 4 8 5 15 18 16 10 6 8 9 8 7 9 8 9 9 12 12 10 8 6 3 5 7 8 9 8
8 21 12 5 3 6 6 13 16 16 6 9 9 13 16 13 11 11 10 11 11 13 10 9 7 8 5 3 3 4 5 6
12 9 8 4 4 8 5 10 13 13 8 13 11 15 16 14 11 11 12 12 12 11 9 7 7 6 7 7 6 8 8 6
20 10 8 5 4 4 4 9 11 11 7 8 7 10 13 15 12 12 13 13 13 11 9 8 7 7 6 6 8 9 9 8
Wind_Direction
170 168 161 205 186 177 85 262 39 227 299 308 198 205 203 220 219 221 215 212 213 212 207 203 200 198 195 196 196 195 198 197
209 132 190 154 157 152 83 195 233 279 254 225 195 208 214 206 210 221 210 209 213 212 209 205 201 199 196 197 196 195 198 195
115 199 186 130 174 164 159 157 199 303 254 209 209 219 209 222 218 213 207 207 210 209 205 203 202 193 198 196 194 195 191 196
200 244 215 207 198 152 175 224 239 166 242 237 233 202 202 229 234 210 203 205 208 205 200 196 199 195 196 194 197 198 195 193
24 303 129 193 208 170 134 87 221 185 250 223 222 236 232 224 244 243 228 200 207 203 197 198 194 193 191 193 201 196 193 195
247 294 316 300 229 200 200 217 224 235 265 238 243 248 252 240 231 235 228 222 204 198 199 197 192 193 190 197 197 192 194 195
257 281 260 249 263 268 225 226 219 223 225 227 234 227 241 230 244 235 240 219 203 199 196 196 194 192 194 193 189 188 192 196
278 269 277 271 260 254 250 262 244 235 245 208 214 220 253 231 216 228 237 227 214 209 202 193 190 191 191 191 190 184 190 202
258 295 314 285 247 250 242 219 218 228 224 227 242 224 225 243 228 216 227 227 206 205 200 202 196 191 193 193 185 191 197 203
244 324 246 248 310 268 242 224 221 229 211 213 228 233 223 219 223 226 220 226 225 219 209 202 196 192 199 187 189 194 203 199
207 219 297 302 3 14 16 261 224 189 223 220 225 247 266 212 213 221 217 217 218 217 212 208 195 192 178 183 191 194 199 197
162 206 228 180 255 252 164 255 33 7 265 217 169 215 251 229 203 223 220 205 211 223 229 187 205 166 167 187 184 196 197 202
241 253 282 245 257 276 189 285 317 312 279 289 236 211 219 212 218 221 212 213 221 180 201 212 186 164 184 181 193 207 200 196
222 239 235 50 298 170 299 296 302 302 289 273 266 268 234 221 243 237 238 225 197 190 92 81 104 176 180 185 208 185 188 195
198 218 249 147 214 257 255 281 305 304 293 265 261 249 235 148 88 74 68 67 78 110 81 43 86 99 134 45 107 107 146 209
321 239 222 203 277 227 249 17 320 303 296 269 209 126 97 80 63 73 54 60 72 78 71 54 41 59 124 187 172 156 173 171
287 290 289 202 257 270 324 25 321 322 358 33 102 104 106 97 90 86 84 75 74 75 72 59 40 45 32 50 120 126 120 128
247 249 257 229 280 296 25 12 326 325 29 45 62 86 93 87 86 85 79 82 79 75 74 66 51 37 20 28 83 103 93 87
259 283 258 206 200 318 41 2 343 337 340 63 58 85 87 89 76 74 70 67 71 76 81 83 71 54 37 60 81 95 106 107